Wind_Speed
23 23 23 23 23 24 22 21 19 18 18 17 17 16 16 15 15 15 14 14 14 13 13 12 12 12 12 12 11 11 11 10 9 9 9 9 8 8 7 7 7 6 6 5 5 6 6 6 6
24 24 24 25 25 24 23 21 20 19 19 19 19 18 17 16 16 16 15 15 15 15 14 14 13 14 13 13 13 13 12 11 11 10 10 10 10 9 9 8 8 8 7 7 7 7 7 7 7
24 25 26 26 26 25 24 22 22 21 21 20 20 19 18 17 17 16 16 16 16 16 16 15 15 15 15 14 14 14 14 13 13 12 12 12 11 11 10 10 10 10 9 9 9 8 8 8 9
24 25 26 27 26 25 25 23 23 23 22 22 22 21 20 19 18 18 17 17 17 17 17 16 16 16 16 16 16 16 16 15 14 14 13 13 13 12 12 11 11 11 11 11 10 10 10 10 10
25 25 26 27 26 25 25 24 24 23 23 23 23 22 21 20 20 19 19 18 18 18 18 18 17 17 17 16 17 17 17 17 16 15 15 14 14 14 14 13 13 13 13 13 13 12 12 12 12
25 25 26 26 26 26 26 26 25 25 24 24 24 24 23 22 22 21 21 20 20 19 19 19 18 18 17 17 17 18 18 18 17 17 17 16 16 16 16 15 15 15 15 15 14 14 14 14 14
25 25 26 26 26 26 26 26 26 26 26 26 26 26 25 24 24 24 23 22 22 21 21 21 20 20 19 19 19 19 19 19 18 18 18 17 17 17 17 17 17 16 17 16 16 16 16 16 16
25 26 26 26 26 26 26 27 27 27 27 28 28 28 27 26 26 25 25 25 24 23 23 22 22 21 21 21 21 21 21 21 20 20 20 20 19 18 18 18 18 18 18 18 18 18 18 17 18
26 28 27 26 27 27 28 28 28 29 28 29 29 29 29 28 28 27 26 26 25 25 25 24 23 23 22 22 22 22 22 23 22 22 22 22 21 20 20 19 20 20 20 20 20 20 20 19 19
27 29 28 28 28 28 28 28 28 29 29 29 30 30 30 30 29 28 28 28 27 27 27 26 25 25 25 24 24 24 24 24 24 24 23 24 23 22 21 21 21 22 21 21 21 21 21 21 21
28 29 29 30 29 29 29 29 29 30 29 29 30 31 31 31 30 30 30 29 29 29 29 28 27 27 27 26 26 25 25 25 25 25 25 25 24 24 23 23 23 23 23 23 23 23 23 23 23
29 30 31 30 30 30 30 30 30 31 30 30 31 31 31 31 31 31 31 31 31 30 30 30 30 29 29 29 28 28 27 27 27 26 26 26 26 26 25 25 25 25 24 24 24 24 24 24 25
30 31 32 31 31 31 31 31 31 31 32 32 32 33 32 32 32 32 31 31 32 31 31 31 31 31 31 31 30 29 29 28 28 28 27 27 27 27 27 27 26 26 26 26 26 26 26 26 26
31 31 32 32 31 32 32 33 33 32 32 32 32 33 34 33 33 32 32 32 32 32 32 32 32 32 32 32 32 31 30 29 29 29 29 29 28 28 29 28 28 28 28 28 28 28 29 29 29
32 32 33 33 33 32 33 34 34 33 34 33 32 33 34 34 34 33 32 32 32 33 33 33 33 33 33 32 32 32 31 31 31 30 30 30 30 30 30 29 29 29 30 30 30 31 31 31 31
32 33 34 33 33 34 35 35 35 35 34 34 33 34 35 35 35 34 34 34 34 34 34 34 34 34 34 34 33 33 32 32 31 31 31 31 31 31 31 31 31 31 32 32 32 32 33 33 33
33 33 33 33 34 34 34 35 35 35 35 35 34 34 35 36 36 36 36 36 36 36 36 35 35 35 35 35 34 34 34 33 33 32 32 32 32 33 33 33 33 33 33 34 34 34 35 36 36
33 33 33 33 33 34 34 34 35 36 36 36 36 36 37 37 37 37 37 37 37 37 37 37 37 37 37 37 35 35 34 34 33 33 33 32 33 33 34 34 35 35 35 35 36 37 38 38 37
33 33 33 33 34 34 34 34 35 35 36 36 36 36 37 38 38 38 38 37 38 38 38 38 38 37 38 38 37 36 35 34 34 34 34 34 35 35 35 36 36 37 37 37 38 39 40 40 40
32 32 32 33 33 34 34 34 34 35 35 36 36 37 37 37 38 38 39 38 38 38 38 39 39 39 39 39 38 38 36 37 36 36 36 35 36 37 37 37 37 38 39 39 40 40 41 41 42
32 32 32 33 34 35 35 35 34 34 35 35 35 36 36 37 37 38 39 39 39 39 39 39 40 40 41 40 40 39 40 38 38 38 38 38 38 37 38 38 39 40 40 40 41 41 42 42 43
32 32 33 33 34 35 36 36 34 34 34 34 35 35 35 36 36 37 38 39 39 39 39 41 41 41 41 41 41 41 40 41 40 39 39 39 39 39 39 40 41 42 43 43 43 43 43 44 45
32 32 33 33 34 35 36 37 35 34 33 32 33 34 35 36 37 37 37 38 39 40 40 41 42 42 42 42 43 43 43 42 42 42 41 41 41 41 42 42 43 44 45 45 46 45 45 45 46
32 33 34 34 35 36 35 36 36 34 33 32 33 34 35 36 37 37 38 38 38 39 41 41 42 43 42 42 42 43 43 43 43 42 43 43 44 44 44 44 44 45 46 46 45 45 45 46 46
30 32 33 34 35 35 34 36 35 33 32 32 33 34 34 35 36 36 37 38 38 39 39 41 41 42 43 42 42 43 43 43 44 44 44 44 45 45 46 46 46 46 46 46 46 46 46 46 47
29 30 31 33 34 34 34 35 34 33 32 32 32 33 33 34 35 36 37 37 38 39 39 40 41 42 43 44 43 43 44 45 45 45 45 46 47 46 47 47 46 46 47 46 47 47 47 47 47
28 29 30 31 33 34 35 34 34 33 33 32 32 32 33 34 34 35 36 37 38 39 40 40 41 42 43 44 44 44 45 45 45 45 46 46 46 46 46 46 45 45 45 45 45 46 47 48 48
28 27 29 30 31 32 34 33 32 31 32 32 32 33 33 34 34 35 36 37 38 38 39 40 41 42 43 44 45 45 45 46 46 46 47 47 47 46 45 45 45 45 45 45 45 44 45 46 47
28 28 28 29 31 31 32 32 31 31 31 31 31 32 32 33 33 33 35 36 37 38 39 40 41 42 43 44 44 45 45 45 46 47 47 47 46 46 46 46 46 46 45 45 45 45 46 46 46
28 28 28 28 29 30 30 30 29 29 29 30 31 31 31 31 32 32 33 34 35 36 38 39 40 41 43 44 44 44 45 45 46 46 46 46 46 46 46 46 46 45 45 45 45 45 45 46 47
Wind_Direction
236 236 237 238 240 242 242 240 237 234 234 233 233 234 234 235 234 236 236 235 233 231 230 229 228 229 227 225 225 225 225 226 225 222 222 225 226 227 226 229 233 237 241 245 248 252 256 255 257
236 237 237 237 240 242 242 241 237 235 235 234 233 233 234 235 236 236 236 236 235 235 234 233 233 233 231 231 232 229 230 231 231 231 230 229 229 230 231 233 239 243 246 249 251 254 258 258 257
236 238 238 238 239 241 241 239 237 236 235 234 233 233 234 235 236 236 238 237 237 238 238 236 236 235 235 234 235 234 234 236 237 237 236 235 236 237 239 241 244 247 250 251 252 255 258 259 260
238 239 239 239 240 241 240 238 237 237 236 235 235 235 235 235 236 237 239 240 240 240 240 241 240 240 238 236 236 238 236 237 240 241 241 241 242 242 243 245 246 248 251 253 255 257 259 261 261
240 240 240 240 240 241 240 238 237 238 237 236 236 236 236 235 237 238 239 241 242 242 242 242 242 240 240 238 237 239 239 240 242 244 245 246 247 246 247 248 249 250 252 252 254 258 260 262 262
241 241 242 241 241 242 241 239 238 238 237 236 237 237 237 237 237 238 239 241 242 243 243 243 242 241 240 238 238 240 241 241 243 245 246 247 249 250 251 251 252 252 253 253 254 257 261 263 263
242 242 242 242 241 242 241 239 239 238 237 237 237 238 238 239 239 239 240 242 242 242 244 243 242 242 241 240 240 241 241 242 244 246 247 248 250 251 252 253 253 253 255 256 256 258 262 264 265
240 242 242 242 242 241 241 241 240 239 238 238 239 240 240 240 241 241 242 243 244 243 243 242 242 243 243 242 243 243 243 244 246 247 249 250 253 255 255 255 255 254 254 256 257 260 262 264 265
241 242 242 242 242 241 241 242 240 241 240 241 241 241 241 241 241 242 243 244 244 244 243 242 243 243 243 244 245 246 246 247 248 249 251 253 255 256 256 256 256 255 255 257 258 260 261 263 265
242 243 243 244 243 241 240 240 240 240 243 243 243 243 242 242 242 242 244 245 244 244 244 242 243 243 244 244 246 248 249 249 249 251 254 254 255 256 256 256 256 256 257 258 259 261 263 264 265
244 245 245 244 243 240 239 240 241 242 243 244 245 245 245 245 245 244 244 245 245 245 244 243 243 244 244 244 246 248 250 250 250 252 252 253 254 255 257 257 257 257 257 259 260 262 263 264 266
246 246 245 245 243 241 241 242 243 243 244 245 246 246 246 246 247 246 245 245 245 245 245 244 243 243 245 246 248 249 251 252 251 252 252 253 254 256 258 258 258 257 258 259 261 262 263 264 267
248 245 246 246 245 243 243 243 244 245 245 247 248 247 246 247 248 247 246 245 245 245 245 245 244 244 245 247 249 249 251 252 253 254 254 254 255 256 258 259 259 259 260 261 262 263 265 266 268
249 246 246 246 246 245 245 245 245 246 247 248 249 248 246 246 247 246 245 245 245 245 245 245 246 245 246 247 249 250 250 252 254 254 255 255 256 256 259 260 261 262 263 263 264 265 266 268 269
249 248 246 246 246 245 245 245 246 247 247 248 248 247 246 246 246 246 246 245 246 245 245 245 246 246 246 248 249 250 252 254 254 255 255 255 256 258 259 260 261 263 264 264 265 266 268 269 270
248 249 247 246 246 246 246 247 247 247 247 247 247 247 246 246 246 247 247 246 247 246 245 246 246 245 246 247 248 250 251 253 254 255 256 256 257 258 259 261 262 264 265 265 266 267 268 270 271
247 249 248 247 246 246 247 247 247 246 247 247 247 247 247 247 247 247 248 248 248 248 247 246 246 245 246 247 249 249 251 252 254 255 256 257 258 259 260 262 263 264 266 266 267 268 268 270 272
249 249 249 248 247 247 247 247 247 246 246 247 248 248 248 248 249 249 249 250 250 250 248 246 245 246 246 248 249 249 251 253 254 255 256 258 260 261 263 264 265 266 267 267 268 269 270 270 271
250 249 250 250 249 249 248 248 247 247 247 247 248 248 248 249 249 250 250 250 250 251 250 248 247 246 246 248 249 250 251 252 254 256 257 259 261 263 264 265 266 267 268 269 270 270 271 271 271
250 250 251 250 251 251 249 249 249 248 248 248 248 249 249 249 250 249 250 251 251 251 250 249 248 246 247 247 248 249 251 252 254 257 258 260 262 264 265 266 267 269 270 270 271 271 272 272 272
250 251 252 252 251 252 251 250 250 250 249 249 249 249 249 249 249 249 249 249 250 251 250 248 247 247 248 248 248 250 252 255 255 256 258 260 263 265 266 268 269 270 271 271 271 271 272 272 272
251 251 252 252 252 252 252 252 250 251 251 250 250 250 250 249 249 249 249 249 249 250 250 249 248 247 247 248 249 251 252 255 256 257 259 261 264 266 268 269 270 271 272 272 273 273 273 274 273
251 251 252 252 253 253 253 254 251 251 252 252 252 252 251 250 250 249 250 249 249 250 249 249 248 247 249 250 250 252 253 255 258 260 261 262 264 266 268 270 271 272 273 274 273 273 274 274 274
251 251 252 253 253 253 253 255 253 252 252 252 253 253 253 252 251 250 251 251 250 249 249 248 248 247 248 250 252 253 255 257 259 260 262 264 265 267 269 271 272 273 274 273 273 273 273 273 273
251 251 252 253 253 254 253 255 255 253 253 252 252 253 253 252 252 251 251 252 251 250 250 249 249 248 249 251 251 253 255 257 259 261 262 265 267 268 269 271 272 272 273 273 272 273 273 274 274
252 251 252 254 255 256 254 254 255 255 255 254 254 253 253 253 253 252 252 252 252 251 251 251 250 249 250 251 252 254 255 257 260 262 264 267 268 269 271 272 272 272 273 273 272 273 273 274 274
252 252 253 256 257 258 257 257 256 256 256 255 255 254 253 253 254 254 253 252 252 253 252 252 251 251 251 252 254 254 256 259 260 263 265 267 269 270 271 271 271 272 273 274 274 273 273 274 274
251 252 254 255 259 261 260 259 259 257 257 257 256 256 255 254 253 253 253 252 252 253 253 253 252 251 251 253 254 256 258 259 261 263 266 268 269 270 270 270 272 273 274 274 274 274 274 274 274
250 249 252 256 258 261 265 263 261 261 259 258 257 257 257 256 256 256 255 253 253 253 254 254 254 253 253 254 256 258 259 261 262 264 266 268 269 270 271 270 271 272 273 274 274 274 275 275 275
248 249 251 254 258 260 263 264 263 262 261 260 259 258 257 257 257 257 256 255 254 254 254 255 254 254 254 255 257 259 261 262 265 266 267 268 269 270 270 271 271 272 272 274 274 275 275 276 277
Height
5826 5828 5829 5831 5833 5834 5836 5838 5840 5842 5843 5844 5845 5846 5847 5848 5850 5853 5852 5851 5852 5852 5853 5854 5855 5856 5856 5857 5858 5859 5860 5860 5861 5861 5862 5862 5862 5862 5862 5862 5862 5863 5863 5863 5863 5863 5863 5863 5863
5822 5823 5826 5827 5828 5830 5833 5835 5837 5838 5839 5840 5841 5842 5843 5844 5846 5847 5848 5848 5849 5850 5851 5852 5853 5854 5854 5855 5856 5857 5857 5858 5859 5859 5860 5860 5861 5861 5861 5861 5861 5861 5862 5862 5861 5861 5861 5861 5861
5817 5819 5821 5822 5824 5826 5829 5831 5832 5833 5835 5836 5838 5839 5840 5841 5843 5844 5845 5846 5846 5847 5848 5849 5850 5851 5852 5853 5854 5854 5855 5856 5857 5857 5858 5858 5858 5859 5859 5859 5860 5860 5860 5860 5860 5860 5860 5860 5860
5813 5814 5816 5818 5820 5822 5824 5826 5827 5829 5830 5832 5833 5835 5836 5838 5839 5840 5841 5842 5843 5844 5845 5846 5847 5848 5849 5850 5851 5852 5853 5853 5854 5855 5855 5856 5856 5856 5857 5857 5857 5858 5858 5858 5858 5858 5858 5858 5858
5807 5809 5811 5813 5815 5817 5819 5821 5822 5824 5825 5827 5829 5831 5832 5834 5835 5836 5837 5839 5840 5841 5842 5843 5844 5845 5846 5847 5848 5849 5850 5851 5851 5852 5853 5853 5854 5854 5854 5855 5855 5855 5855 5856 5856 5856 5856 5856 5855
5803 5804 5806 5808 5810 5812 5814 5815 5817 5818 5820 5822 5824 5826 5828 5829 5831 5832 5833 5835 5836 5837 5838 5839 5841 5842 5843 5844 5845 5846 5847 5847 5848 5849 5849 5850 5851 5851 5851 5852 5852 5852 5852 5853 5853 5853 5853 5853 5853
5798 5799 5801 5803 5804 5807 5809 5810 5812 5813 5815 5817 5819 5821 5823 5825 5826 5828 5829 5830 5832 5833 5834 5836 5837 5838 5839 5840 5841 5842 5843 5844 5845 5845 5846 5847 5847 5847 5848 5848 5848 5849 5849 5849 5849 5850 5850 5850 5850
5792 5794 5795 5797 5799 5802 5803 5805 5806 5808 5809 5811 5813 5816 5818 5819 5821 5823 5824 5826 5827 5828 5830 5831 5833 5834 5835 5836 5837 5838 5839 5840 5841 5842 5842 5843 5843 5844 5844 5844 5844 5845 5845 5845 5846 5846 5846 5846 5846
5786 5789 5790 5792 5794 5796 5798 5799 5801 5802 5804 5805 5807 5810 5812 5814 5815 5817 5819 5821 5822 5824 5825 5826 5828 5829 5831 5832 5833 5834 5835 5836 5836 5837 5838 5838 5839 5839 5840 5840 5840 5841 5841 5841 5841 5842 5841 5841 5841
5780 5782 5785 5787 5788 5790 5792 5793 5795 5797 5798 5800 5802 5804 5805 5807 5809 5811 5813 5815 5817 5818 5820 5821 5823 5824 5826 5827 5828 5829 5830 5831 5832 5832 5833 5834 5834 5834 5835 5835 5836 5836 5836 5837 5837 5837 5837 5837 5837
5774 5776 5779 5780 5781 5783 5785 5787 5789 5791 5793 5794 5796 5797 5799 5801 5803 5805 5807 5809 5810 5812 5814 5816 5817 5819 5821 5822 5823 5824 5825 5826 5827 5827 5828 5829 5829 5829 5830 5830 5831 5831 5831 5832 5832 5832 5832 5832 5832
5768 5770 5771 5773 5775 5777 5779 5780 5782 5784 5786 5787 5788 5790 5792 5794 5796 5798 5800 5802 5804 5806 5808 5810 5811 5813 5815 5816 5818 5819 5820 5820 5821 5822 5823 5823 5824 5824 5825 5825 5825 5826 5826 5826 5826 5826 5826 5826 5826
5761 5762 5764 5766 5768 5769 5772 5774 5775 5777 5779 5780 5781 5783 5785 5787 5788 5790 5792 5794 5796 5799 5801 5803 5805 5807 5809 5810 5811 5813 5814 5814 5815 5816 5817 5817 5818 5819 5819 5819 5820 5820 5820 5820 5821 5821 5821 5821 5820
5754 5755 5756 5758 5760 5762 5764 5766 5768 5770 5772 5773 5774 5776 5777 5779 5781 5783 5785 5787 5789 5791 5793 5796 5798 5800 5802 5803 5805 5806 5807 5808 5809 5810 5811 5811 5812 5812 5813 5813 5814 5814 5814 5814 5814 5814 5814 5814 5814
5745 5747 5749 5750 5752 5754 5756 5758 5761 5763 5764 5766 5767 5769 5770 5772 5774 5776 5778 5780 5782 5784 5786 5788 5791 5793 5795 5796 5798 5799 5801 5802 5803 5803 5804 5805 5805 5806 5806 5807 5807 5807 5808 5808 5808 5808 5808 5807 5807
5736 5738 5740 5743 5744 5746 5749 5751 5753 5754 5756 5758 5760 5761 5763 5765 5767 5769 5771 5773 5775 5777 5779 5781 5783 5785 5787 5789 5790 5792 5793 5794 5796 5796 5797 5798 5799 5799 5799 5800 5800 5800 5801 5801 5801 5800 5800 5800 5799
5728 5730 5732 5735 5736 5738 5740 5742 5745 5746 5748 5750 5752 5754 5755 5757 5759 5761 5763 5765 5767 5769 5771 5773 5775 5777 5779 5781 5783 5785 5786 5787 5788 5789 5790 5791 5791 5792 5792 5793 5793 5793 5793 5793 5793 5793 5793 5792 5792
5721 5723 5725 5726 5728 5729 5731 5734 5736 5738 5740 5742 5744 5746 5747 5749 5751 5753 5755 5757 5759 5761 5763 5765 5768 5769 5771 5773 5775 5777 5778 5780 5781 5782 5782 5783 5784 5784 5785 5785 5785 5785 5785 5785 5784 5784 5784 5783 5783
5713 5714 5716 5718 5719 5721 5723 5725 5727 5729 5731 5734 5735 5737 5739 5741 5743 5744 5746 5748 5750 5752 5755 5757 5759 5761 5763 5765 5767 5769 5771 5772 5773 5774 5775 5775 5776 5776 5776 5776 5776 5776 5776 5776 5775 5774 5774 5774 5773
5704 5706 5708 5709 5710 5712 5714 5716 5718 5720 5723 5725 5727 5729 5731 5732 5734 5736 5738 5740 5742 5743 5746 5748 5750 5752 5754 5756 5758 5760 5762 5763 5764 5765 5766 5766 5767 5767 5767 5767 5767 5767 5767 5766 5766 5765 5764 5763 5762
5696 5698 5700 5701 5702 5703 5706 5708 5711 5712 5714 5716 5718 5720 5721 5723 5725 5727 5729 5731 5732 5734 5736 5739 5741 5743 5745 5747 5749 5751 5753 5755 5755 5756 5757 5758 5758 5758 5757 5758 5757 5757 5757 5756 5755 5754 5754 5753 5752
5688 5690 5691 5693 5694 5695 5697 5698 5703 5704 5705 5707 5709 5711 5713 5714 5716 5718 5720 5721 5723 5725 5727 5729 5731 5734 5736 5738 5740 5742 5744 5745 5746 5747 5747 5747 5748 5747 5747 5747 5747 5747 5746 5745 5744 5743 5742 5741 5740
5680 5681 5683 5684 5685 5686 5688 5689 5694 5695 5697 5699 5701 5702 5704 5705 5707 5708 5710 5712 5713 5715 5717 5719 5721 5724 5726 5728 5730 5732 5733 5734 5736 5736 5737 5737 5737 5737 5737 5737 5736 5736 5735 5734 5733 5732 5731 5729 5728
5671 5673 5674 5674 5675 5677 5680 5680 5684 5687 5690 5691 5692 5693 5694 5696 5697 5699 5700 5702 5703 5705 5707 5709 5711 5714 5716 5718 5720 5721 5723 5724 5725 5726 5726 5727 5726 5726 5726 5725 5724 5724 5723 5722 5720 5719 5718 5717 5716
5663 5665 5665 5665 5666 5668 5671 5671 5675 5679 5680 5682 5683 5684 5685 5686 5687 5689 5691 5692 5694 5695 5697 5699 5701 5703 5705 5707 5709 5711 5712 5713 5715 5715 5715 5715 5715 5715 5714 5713 5713 5711 5710 5709 5708 5707 5706 5705 5704
5655 5657 5658 5658 5659 5661 5662 5662 5667 5670 5671 5672 5673 5674 5675 5676 5678 5679 5681 5682 5684 5685 5687 5688 5690 5693 5695 5697 5699 5700 5701 5702 5703 5704 5704 5704 5704 5703 5702 5701 5700 5699 5698 5697 5696 5695 5694 5693 5692
5647 5648 5650 5650 5650 5651 5652 5655 5658 5660 5662 5663 5664 5665 5666 5667 5668 5669 5671 5672 5673 5675 5677 5678 5680 5682 5684 5686 5687 5689 5690 5691 5692 5692 5692 5692 5692 5691 5690 5689 5688 5687 5686 5685 5684 5683 5682 5681 5680
5639 5641 5642 5642 5642 5643 5644 5647 5650 5652 5652 5654 5655 5656 5657 5658 5659 5659 5660 5662 5663 5664 5666 5668 5669 5671 5673 5674 5676 5678 5679 5680 5680 5680 5680 5680 5680 5679 5678 5678 5677 5676 5675 5674 5673 5672 5670 5669 5667
5632 5633 5633 5634 5635 5636 5636 5641 5642 5642 5643 5644 5645 5646 5647 5648 5649 5650 5651 5652 5653 5654 5655 5657 5658 5660 5662 5663 5664 5666 5667 5668 5668 5668 5668 5668 5668 5667 5667 5666 5665 5664 5664 5662 5661 5660 5659 5657 5655
5623 5625 5626 5627 5628 5628 5629 5634 5633 5633 5634 5635 5636 5636 5637 5639 5639 5640 5641 5642 5643 5644 5646 5647 5648 5649 5651 5652 5653 5654 5655 5656 5656 5656 5656 5656 5656 5655 5655 5654 5653 5653 5652 5651 5650 5648 5647 5646 5644